Simultaneous Nadir Overpasses (SNOs) Predictions

Prediction of SNOs between GOES-17 and NPP Satellite Orbit:

Table of predicted SNOs for the next 14.0 days since TLE Epoch: 5/8/2021
Index Date Time (GOES-17) GOES-17 Lat,Lon NPP Lat,Lon Distance(km) Time Diff (sec)
1 05/08/2021 10:17:41 -0.02,-137.19 -0.80,-133.71 397.30 80
2 05/09/2021 22:42:19 0.02,-137.20 -0.42,-139.01 207.21 80
3 05/10/2021 22:20:55 0.02,-137.20 0.61,-134.49 308.73 80
4 05/12/2021 10:45:25 -0.01,-137.19 0.54,-139.76 292.84 80
5 05/13/2021 10:24:00 -0.02,-137.18 -0.43,-135.23 222.53 80
6 05/14/2021 22:48:38 0.01,-137.17 -0.72,-140.54 383.59 80
7 05/15/2021 22:29:54 0.01,-137.16 0.26,-136.01 131.40 80
8 05/17/2021 10:51:43 -0.01,-137.14 0.90,-141.28 471.58 80
9 05/18/2021 10:30:19 -0.01,-137.13 -0.07,-136.75 42.99 80
10 05/20/2021 22:33:33 0.01,-137.09 -0.10,-137.53 50.20 80
11 05/21/2021 22:17:29 0.01,-137.07 0.94,-133.00 463.97 80
